STARLINK-1094, 44941

Orbit data source: Space-Track

STARLINK-1094, 44941 is a payload satellite owned by SpaceX/Seattle (US) in LEO that was launched on Tue, 07 Jan 2020 UTC via an FALCON 9 launch vehicle from the Air Force Eastern Test Range (AFETR). Payloads include a variety of satellites, spacecraft, and rockets equipped with specific instruments for various scientific and technological missions. These include communications satellites like Starlink; space stations such as the ISS; scientific satellites like the Hubble; Earth observation satellites from companies like Planet Labs, Umbra, and HawkEye 360; GPS; miniature CubeSats for education and research; and military/defense satellites.

Loading next visibility...
STARLINK-1094 details
Identifier
44941, 2020-001AD
Orbit
LEO
Last TLE update22 hours ago
Origin
Flag of USSpaceX/Seattle (US)
ManufacturerSpaceX/Seattle
MissionOperational Commercial Communications
Bus & MotorSTARLINK, Unknown motor
Mass260 kg wet, ~248 kg dry
Launch date (UTC)
2020-01-07 (5 years ago)
Launch vehicle
FALCON 9
Launch site
Air Force Eastern Test Range (AFETR)
Object type
Payload
Rocket body
Debris
Shape & HBRBox + 1 Pan, 8.86 m
Radar Cross Section13.562 m², Large (>1 m²)

Expand to show TLE details & history

TLE from 22 hours ago
0 STARLINK-1094
1 44941U 20001AD  24360.58609411  .00005403  00000-0  38166-3 0  9993
2 44941  53.0551 137.8281 0002953 112.3848 247.7454 15.06370415273949
Epoch: 2024-12-25T14:03Z
Definitive object data (Epoch: 2024-12-25T14:03:58.531Z)
Latitude-0.00001°
Longitude-167.7435°
Altitude548.956 km
Speed7.588 km/s
True Right ascension09h 11m 18s
True Declination0° 00' 00"
Sunlit
Object was in full shadow at TLE epoch
Visualization TLE readout
Latitude-13.88743°
Longitude18.87692°
Altitude550.698 km
Speed7.587 km/s
Apparent Right ascension22h 12m 14s
Apparent Declination-26° 34' 10"
Sunlit
Object is in daylight
Visualization observer readout
Local Sidereal Time10:59:42
Azimuth40.076° NE
Elevation-73.402°
Doppler factor1
Orbital elements
Apogee altitude549.618 km
Perigee altitude545.528 km
Semi-major axis6,925.71 km
Eccentricity0.0002953
Inclination53.0551°
RAAN137.8281°
Arg. of periapsis112.3848°
True anomaly247.71409°
Mean anomaly247.7454°
Eccentric anomaly247.72974°
Mean motion3.76571 °/min
BSTAR0.00038166
Orbital period95.6 mins
Loading maneuver chart data...

STARLINK-1094 Visibility forecast

Observer location: undefined°, undefined

Span
Click to sort rows by Start time (UTC) header in descending order
Start Az.
Max El. time (UTC)
Max El. Az.
Max El.
End time (UTC)
End Az.
7 mins2024-12-26 12:33:19.091Z247.965° W2024-12-26 12:36:19.091Z295.14° NW37.471°2024-12-26 12:40:19.091Z41.087° NE
5 mins2024-12-26 17:36:19.091Z339.121° N2024-12-26 17:38:19.091Z19.452° NNE24.915°2024-12-26 17:41:19.091Z80.17° E
5 mins2024-12-26 19:16:19.091Z289.425° WNW2024-12-26 19:18:19.091Z223.453° SW38.451°2024-12-26 19:21:19.091Z152.096° SSE
5 mins2024-12-27 10:49:19.091Z173.09° S2024-12-27 10:51:19.091Z126.991° SE25.522°2024-12-27 10:54:19.091Z73.797° E
|